Flag for France

Past Weather in Ajaccio, Corse, France — Yesterday and Last 2 Weeks

Now
64 °F

Overcast.


Feels Like: 64 °F
Forecast: 75 / 64 °F
Wind: 5 mph from Northeast

Location: Ajaccio Airport
Current Time: Oct 1, 2020 at 10:21:28 pm
Latest Report: Oct 1, 2020 at 9:30 pm
Visibility: N/A
Pressure29.77 "Hg
Humidity: 83%
Dew Point: 59 °F
Location of AjaccioLocation

Past Weather in Ajaccio — Graph

°F

Ajaccio Temperature Yesterday

Maximum temperature yesterday: 73 °F (at 3:00 pm)
Minimum temperature yesterday: 55 °F (at 6:30 am)
Average temperature yesterday: 63 °F

High & Low Weather Summary for the Past Weeks

 TemperatureHumidityPressure
High84 °F (Sep 19, 12:30 pm)94% (Sep 22, 12:30 am)30.07 "Hg (Sep 22, 12:30 am)
Low52 °F (Sep 27, 3:30 am)45% (Sep 19, 12:30 pm)29.53 "Hg (Sep 27, 7:00 am)
Average68 °F76%29.89 "Hg
* Reported Sep 16 9:00 pm — Oct 1 9:00 pm, Ajaccio. Weather by CustomWeather, © 2020

Note: Actual official high and low records may vary slightly from our data, if they occured in-between our weather recording intervals... More about our weather records

Ajaccio Weather History for the Previous 24 Hours

Scroll right to see more
 ConditionsComfort  
Time TempWeatherWind HumidityBarometerVisibility
9:00 pm
Thu, Oct 1
64 °FMostly cloudy.2 mph88%29.80 "HgN/A
8:30 pm64 °FPassing clouds.3 mph83%29.80 "HgN/A
8:00 pm66 °FPassing clouds.3 mph83%29.77 "HgN/A
7:30 pm66 °FClear.3 mph83%29.77 "Hg10 mi
7:00 pm68 °FSunny.3 mph83%29.80 "Hg10 mi
6:30 pm70 °FSunny.6 mph78%29.80 "Hg10 mi
6:00 pm72 °FSunny.7 mph73%29.80 "Hg10 mi
5:30 pm72 °FSunny.8 mph73%29.80 "Hg10 mi
5:00 pm72 °FSunny.8 mph69%29.80 "Hg10 mi
4:30 pm73 °FSunny.8 mph69%29.80 "Hg10 mi
4:00 pm73 °FSunny.9 mph65%29.80 "Hg10 mi
3:30 pm73 °FPassing clouds.8 mph65%29.83 "HgN/A
3:00 pm73 °FPartly sunny.10 mph65%29.83 "HgN/A
2:30 pm73 °FPartly sunny.9 mph65%29.83 "HgN/A
2:00 pm73 °FSunny.9 mph65%29.83 "Hg10 mi
1:30 pm73 °FSunny.9 mph61%29.83 "Hg10 mi
1:00 pm72 °FSunny.8 mph65%29.86 "Hg10 mi
12:30 pm72 °FSunny.9 mph65%29.86 "Hg10 mi
12:00 pm72 °FSunny.6 mph57%29.86 "Hg10 mi
11:30 am70 °FSunny.6 mph69%29.86 "Hg10 mi
11:00 am70 °FPassing clouds.3 mph60%29.86 "HgN/A
10:30 am70 °FSunny.2 mph64%29.86 "Hg10 mi
10:00 am64 °FPassing clouds.5 mph78%29.86 "HgN/A
9:30 am61 °FPassing clouds.6 mph83%29.86 "HgN/A
9:00 am57 °FSunny.7 mph88%29.86 "Hg10 mi
8:30 am55 °FSunny.8 mph88%29.86 "Hg10 mi
8:00 am54 °FSunny.7 mph94%29.86 "Hg10 mi
7:30 am54 °FSunny.8 mph94%29.86 "Hg10 mi
7:00 am54 °FPassing clouds.7 mph94%29.86 "HgN/A
6:30 am54 °FClear.8 mph94%29.86 "Hg10 mi
6:00 am54 °FPassing clouds.9 mph94%29.86 "HgN/A
5:30 am54 °FClear.8 mph94%29.86 "Hg10 mi
5:00 am55 °FClear.8 mph88%29.86 "Hg10 mi
4:30 am55 °FClear.8 mph88%29.86 "Hg10 mi
4:00 am55 °FClear.8 mph88%29.89 "Hg10 mi
3:30 am55 °FClear.7 mph88%29.89 "Hg10 mi
3:00 am55 °FClear.6 mph88%29.89 "Hg10 mi
2:30 am55 °FClear.8 mph94%29.89 "Hg10 mi
2:00 am55 °FPassing clouds.7 mph94%29.92 "HgN/A
1:30 am55 °FClear.6 mph94%29.92 "Hg10 mi
1:00 am57 °FClear.5 mph88%29.92 "Hg10 mi
12:30 am57 °FClear.8 mph88%29.92 "Hg10 mi
12:00 am57 °FClear.6 mph94%29.95 "Hg10 mi
11:30 pm
Wed, Sep 30
57 °FClear.7 mph88%29.95 "Hg10 mi
11:00 pm59 °FClear.6 mph88%29.95 "Hg10 mi
10:30 pm59 °FClear.6 mph88%29.95 "Hg10 mi
10:00 pm59 °FClear.5 mph88%29.95 "Hg10 mi
Weather by CustomWeather, © 2020

See weather overview